[[{"header":{"parameterUnit":"m.s-1","parameterCategory":1,"la1":30.2991,"la2":30.254,"lo1":-89.0895,"lo2":-89.0444,"dy":0.0017,"dx":0.0017,"nx":28,"ny":28,"refTime":"2025-04-02T03:00:00:Z","depth":0,"parameterNumber":2,"parameterNumberName":"U-component_of_WINDS"},"data":[0,0,0,0,0,0,0,0,0,0,0,0,0,0,0,0,0,0,0,0,0,0,0,0,0,0,0,0,0,0,0,0,0,0,0,0,0,0,0,0,0,0,0,0,0,0,0,0,0,0,0,0,0,0,0,0,0,0,-4.4554,-4.4556,0,-4.4694,-4.4695,-4.4697,-4.4735,-4.4734,-4.4733,-4.4732,-4.4873,-4.4877,-4.4882,0,0,0,0,0,0,0,0,0,0,0,0,0,-4.4319,-4.4323,-4.4554,-4.4556,-4.4557,-4.4693,-4.4695,-4.4697,-4.4735,-4.4734,-4.4733,-4.4732,-4.4871,-4.4877,-4.4882,0,0,0,0,0,0,0,0,0,0,0,0,0,-4.4436,-4.4324,-4.4554,-4.4593,-4.4598,-4.4693,-4.4695,-4.4698,-4.4735,-4.4734,-4.4733,-4.4732,-4.487,-4.4876,-4.4883,-4.4949,0,0,-4.4903,-4.4906,0,0,0,0,0,0,0,0,-4.4429,-4.4444,-4.4585,-4.459,-4.4596,-4.4696,-4.4664,-4.4782,-4.4736,-4.4683,-4.4732,-4.4731,-4.4815,-4.4826,-4.4855,-4.4955,-4.4961,-4.4904,-4.4908,-4.4911,-4.4913,0,0,0,0,0,0,0,-4.4421,-4.4439,-4.4609,-4.4587,-4.4594,-4.4603,-4.4618,-4.4687,-4.4754,-4.4687,-4.469,-4.4707,-4.4817,-4.4848,-4.4858,-4.4963,-4.4904,-4.491,-4.4914,-4.4917,-4.5125,-4.5127,0,0,0,0,0,0,-4.4406,-4.4432,-4.4605,-4.4613,-4.4508,-4.4608,-4.4625,-4.4665,-4.4753,-4.4766,-4.4708,-4.4708,-4.4837,-4.485,-4.4863,-4.4946,-4.4911,-4.4917,-4.4921,-4.5124,-4.5126,-4.5127,0,0,0,0,0,0,-4.4401,-4.4422,-4.4599,-4.4524,-4.4547,-4.4614,-4.4658,-4.4668,-4.4699,-4.4768,-4.478,-4.4727,-4.4837,-4.4854,-4.4927,-4.4951,-4.492,-4.4926,-4.5122,-4.5124,-4.5127,-4.5111,0,0,0,0,0,0,-4.4394,-4.4419,-4.4445,-4.4524,-4.4551,-4.4661,-4.4659,-4.4672,-4.4711,-4.4713,-4.4789,-4.4801,-4.4837,-4.4917,-4.4934,-4.496,-4.4932,-4.512,-4.5123,-4.5126,-4.511,-4.5113,-4.5115,0,0,0,0,0,-4.4386,-4.4435,-4.4446,-4.4467,-4.4584,-4.4662,-4.4678,-4.4719,-4.4713,-4.4739,-4.4784,-4.4799,-4.4947,-4.4924,-4.4944,-4.4972,-4.5119,-4.5122,-4.5126,-4.5109,-4.5112,-4.5115,0,0,0,0,0,0,-4.4356,-4.4446,-4.4459,-4.4535,-4.4591,-4.4669,-4.4703,-4.4721,-4.4779,-4.4778,-4.4827,-4.4844,-4.4914,-4.4951,-4.4924,-4.5041,-4.5033,-4.504,-4.5013,-4.5017,-4.502,-4.5008,-4.4937,0,0,0,0,0,-4.4358,-4.4415,-4.449,-4.455,-4.4577,-4.4635,-4.4671,-4.4698,-4.4757,-4.4781,-4.4831,-4.4887,-4.4947,-4.4984,-4.5043,-4.5117,-4.5133,-4.5146,-4.5148,-4.515,-4.5155,-4.5197,-4.5203,-4.5138,-4.5138,-4.5138,0,0,-4.4363,-4.4419,-4.4452,-4.4545,-4.4591,-4.4648,-4.4655,-4.4714,-4.4757,-4.4789,-4.4862,-4.4901,-4.4967,-4.5041,-4.5076,-4.5074,-4.5177,-4.5154,-4.5155,-4.5159,-4.5201,-4.5207,-4.5212,-4.5141,-4.514,-4.514,0,0,-4.4401,-4.445,-4.4504,-4.4551,-4.4622,-4.4661,-4.4674,-4.475,-4.4777,-4.4851,-4.4877,-4.4929,-4.503,-4.5076,-4.5112,-4.517,-4.5186,-4.5188,-4.5201,-4.5241,-4.5246,-4.5251,-4.527,-4.5277,-4.5194,-4.5194,-4.5194,0,-4.4397,-4.4485,-4.453,-4.4589,-4.4629,-4.4663,-4.4719,-4.4762,-4.4848,-4.4875,-4.4872,-4.5,-4.5047,-4.5132,-4.5147,-4.5176,-4.5192,-4.5178,-4.5242,-4.5247,-4.5252,-4.5271,-4.5278,-4.5193,-4.5193,-4.5193,-4.5193,0,-4.4477,-4.4537,-4.4573,-4.4656,-4.4701,-4.4757,-4.4811,-4.4851,-4.4875,-4.4914,-4.4989,-4.5048,-4.5118,-4.5141,-4.5165,-4.523,-4.5227,-4.5232,-4.5225,-4.5257,-4.5276,-4.5284,-4.5193,-4.5193,-4.5193,-4.5193,0,0,-4.4497,-4.4606,-4.4618,-4.4656,-4.4738,-4.4785,-4.4844,-4.4915,-4.4947,-4.5006,-4.5056,-4.5142,-4.5149,-4.519,-4.522,-4.5255,-4.5297,-4.5257,-4.5259,-4.5261,-4.5371,-4.5365,-4.5373,-4.5309,-4.531,-4.5312,-4.5365,0,-4.4543,-4.465,-4.4694,-4.478,-4.4836,-4.487,-4.4922,-4.4977,-4.5016,-4.5069,-4.5112,-4.5171,-4.5176,-4.5201,-4.5238,-4.5283,-4.5319,-4.5281,-4.5354,-4.5356,-4.5334,-4.5383,-4.5376,-4.5424,-4.5373,-4.5374,-4.5375,0,-4.4611,-4.4672,-4.4763,-4.4839,-4.4864,-4.491,-4.4978,-4.5029,-4.5093,-4.5118,-4.5166,-4.5194,-4.5257,-4.5248,-4.5335,-4.5308,-4.5342,-4.5369,-4.5372,-4.5378,-4.5366,-4.5389,-4.544,-4.5446,-4.5387,-4.5386,-4.5386,0,-4.4615,-4.4719,-4.4788,-4.482,-4.491,-4.4941,-4.498,-4.5043,-4.5083,-4.5143,-4.5169,-4.5236,-4.5272,-4.5323,-4.5368,-4.5357,-4.5451,-4.5445,-4.5473,-4.5472,-4.5489,-4.5487,-4.5544,-4.5513,-4.5513,-4.5513,-4.5513,0,-4.4661,-4.4716,-4.4791,-4.4832,-4.4895,-4.4945,-4.5005,-4.5046,-4.5103,-4.5153,-4.5188,-4.5234,-4.5292,-4.5346,-4.5382,-4.5449,-4.5465,-4.5487,-4.5495,-4.5483,-4.548,-4.5503,-4.55,-4.5515,-4.5515,-4.5514,-4.5514,0,-4.4675,-4.4727,-4.4804,-4.4884,-4.4905,-4.4948,-4.5016,-4.5058,-4.5099,-4.5163,-4.518,-4.5245,-4.531,-4.5362,-4.5447,-4.5471,-4.5541,-4.5551,-4.5519,-4.5523,-4.5547,-4.5543,-4.562,-4.5632,-4.5595,-4.5595,-4.5595,0,-4.47,-4.4742,-4.4828,-4.4864,-4.4903,-4.4962,-4.5003,-4.5055,-4.5096,-4.5173,-4.5206,-4.5274,-4.5331,-4.5434,-4.5488,-4.5554,-4.5565,-4.5587,-4.5575,-4.5561,-4.5564,-4.556,-4.5564,-4.5588,-4.5588,-4.5588,-4.5588,0,-4.4738,-4.4762,-4.4821,-4.4889,-4.4937,-4.4993,-4.505,-4.5078,-4.514,-4.5185,-4.5253,-4.5297,-4.5385,-4.5452,-4.5523,-4.5563,-4.5586,-4.5592,-4.5602,-4.5588,-4.5567,-4.5578,-4.5521,-4.559,-4.559,-4.5589,-4.5589,-4.5589,-4.4757,-4.4797,-4.4863,-4.4927,-4.4976,-4.5028,-4.5072,-4.5119,-4.5177,-4.5253,-4.528,-4.535,-4.5414,-4.5512,-4.5553,-4.5608,-4.5609,-4.5623,-4.5627,-4.5629,-4.5627,-4.556,-4.5622,-4.5622,-4.5622,-4.5622,-4.5622,0,-4.4796,-4.4841,-4.49,-4.4978,-4.5029,-4.5048,-4.5112,-4.5153,-4.5214,-4.5272,-4.5328,-4.5406,-4.5472,-4.5532,-4.5601,-4.5634,-4.5646,-4.565,-4.5647,-4.5655,-4.5623,-4.5607,-4.5639,-4.5639,-4.5639,-4.5639,-4.5639,-4.5639,-4.4822,-4.489,-4.4923,-4.5016,-4.506,-4.5129,-4.5164,-4.5213,-4.526,-4.5346,-4.5401,-4.544,-4.55,-4.5573,-4.5634,-4.565,-4.5673,-4.5674,-4.5693,-4.566,-4.5658,-4.5655,-4.5641,-4.5679,-4.5679,-4.5721,-4.5721,-4.5721]},{"header":{"parameterUnit":"m.s-1","parameterCategory":1,"la1":30.2991,"la2":30.254,"lo1":-89.0895,"lo2":-89.0444,"dy":0.0017,"dx":0.0017,"nx":28,"ny":28,"refTime":"2025-04-02T03:00:00:Z","depth":0,"parameterNumber":3,"parameterNumberName":"V-component_of_WINDS"},"data":[0,0,0,0,0,0,0,0,0,0,0,0,0,0,0,0,0,0,0,0,0,0,0,0,0,0,0,0,0,0,0,0,0,0,0,0,0,0,0,0,0,0,0,0,0,0,0,0,0,0,0,0,0,0,0,0,0,0,5.5666,5.5668,0,5.5793,5.5795,5.5796,5.5821,5.582,5.5819,5.5818,5.5944,5.5949,5.5953,0,0,0,0,0,0,0,0,0,0,0,0,0,5.5443,5.5447,5.5666,5.5668,5.5669,5.5793,5.5795,5.5797,5.5821,5.582,5.5819,5.5818,5.5943,5.5948,5.5953,0,0,0,0,0,0,0,0,0,0,0,0,0,5.5552,5.5449,5.5666,5.5697,5.5701,5.5793,5.5795,5.5797,5.5822,5.582,5.5819,5.5817,5.5941,5.5948,5.5954,5.6023,0,0,5.5974,5.5976,0,0,0,0,0,0,0,0,5.5546,5.556,5.5691,5.5695,5.5699,5.579,5.5763,5.5873,5.5822,5.5776,5.5818,5.5817,5.5894,5.5904,5.5931,5.6029,5.6034,5.5974,5.5978,5.5981,5.5983,0,0,0,0,0,0,0,5.5538,5.5555,5.5716,5.5692,5.5698,5.5704,5.5718,5.5784,5.5841,5.578,5.5782,5.5797,5.5896,5.5925,5.5934,5.6036,5.5974,5.598,5.5984,5.5986,5.6201,5.6203,0,0,0,0,0,0,5.5526,5.5549,5.5712,5.572,5.5618,5.5709,5.5725,5.5762,5.5841,5.5851,5.5798,5.5797,5.5915,5.5927,5.5939,5.6028,5.5981,5.5987,5.599,5.6199,5.6201,5.6203,0,0,0,0,0,0,5.5521,5.554,5.5707,5.5635,5.5657,5.5715,5.5757,5.5766,5.5795,5.5855,5.5865,5.5817,5.5914,5.593,5.6003,5.6032,5.599,5.5995,5.6197,5.62,5.6202,5.6204,0,0,0,0,0,0,5.5514,5.5538,5.5565,5.5636,5.5661,5.577,5.5759,5.5769,5.5806,5.5807,5.5875,5.5885,5.5914,5.5993,5.6009,5.604,5.6,5.6194,5.6198,5.6201,5.6202,5.6207,5.6211,0,0,0,0,0,5.5506,5.5559,5.5566,5.5586,5.5696,5.5771,5.5785,5.5819,5.5808,5.5836,5.5875,5.5883,5.6026,5.6001,5.6019,5.6052,5.6193,5.6197,5.6201,5.62,5.6206,5.6211,0,0,0,0,0,0,5.5488,5.5568,5.5578,5.5654,5.5706,5.5775,5.5811,5.5824,5.5878,5.5876,5.5915,5.593,5.6002,5.6034,5.6004,5.6125,5.6109,5.6117,5.6102,5.6108,5.6112,5.6103,5.6006,0,0,0,0,0,5.5493,5.5548,5.5615,5.5677,5.5703,5.5752,5.5786,5.5809,5.5863,5.5884,5.5929,5.598,5.6038,5.6074,5.613,5.6206,5.6223,5.6239,5.6243,5.6247,5.6253,5.63,5.6308,5.6217,5.6217,5.6217,0,0,5.5503,5.5554,5.5586,5.5674,5.5717,5.5774,5.577,5.583,5.5873,5.5893,5.5966,5.6001,5.6061,5.6137,5.6173,5.6166,5.6282,5.6252,5.6254,5.6259,5.6305,5.6313,5.6321,5.622,5.6219,5.6219,0,0,5.5552,5.5595,5.5653,5.5697,5.5763,5.5796,5.581,5.5879,5.5903,5.5978,5.5995,5.6046,5.6143,5.6187,5.6221,5.6291,5.6301,5.6308,5.6332,5.6376,5.6384,5.639,5.6417,5.6426,5.6314,5.6314,5.6314,0,5.5556,5.5644,5.568,5.5741,5.578,5.5804,5.5863,5.5903,5.5983,5.6009,5.6001,5.6127,5.6168,5.6257,5.6274,5.6301,5.6319,5.63,5.638,5.6387,5.6393,5.642,5.643,5.6315,5.6315,5.6314,5.6314,0,5.5647,5.5708,5.5746,5.5826,5.5869,5.5928,5.5975,5.6014,5.6033,5.6068,5.6145,5.6197,5.6265,5.6287,5.6305,5.6379,5.6374,5.6372,5.6357,5.6402,5.6428,5.6438,5.6315,5.6315,5.6315,5.6315,0,0,5.5686,5.5788,5.5802,5.584,5.5916,5.5963,5.6024,5.6094,5.6128,5.6182,5.6236,5.6319,5.632,5.6359,5.6382,5.6421,5.6477,5.6416,5.6418,5.6427,5.6565,5.6567,5.6578,5.6484,5.6486,5.6488,5.6561,0,5.5746,5.5857,5.5894,5.5987,5.6045,5.607,5.6123,5.6176,5.6211,5.6264,5.6302,5.6362,5.6356,5.6381,5.6421,5.6462,5.6505,5.6457,5.6535,5.6537,5.652,5.6591,5.6593,5.666,5.6571,5.6573,5.6574,0,5.583,5.589,5.5989,5.6061,5.6087,5.6134,5.6203,5.6254,5.6314,5.6337,5.6383,5.6404,5.647,5.6451,5.6543,5.6509,5.6543,5.6569,5.6572,5.6581,5.6559,5.6605,5.6682,5.6692,5.659,5.6588,5.6587,0,5.5851,5.5956,5.603,5.6062,5.6147,5.6181,5.6217,5.6277,5.6318,5.6377,5.6404,5.6469,5.6505,5.6555,5.6593,5.6575,5.6683,5.6666,5.6705,5.6704,5.6727,5.6725,5.6812,5.6746,5.6746,5.6745,5.6745,0,5.5915,5.5975,5.6042,5.6087,5.6157,5.6198,5.6265,5.6304,5.6357,5.6411,5.6435,5.6485,5.6532,5.6589,5.6619,5.6693,5.6708,5.6728,5.6736,5.6727,5.6725,5.6751,5.6748,5.6748,5.6748,5.6747,5.6746,0,5.5951,5.5997,5.6081,5.6156,5.6177,5.6224,5.6289,5.6335,5.6371,5.6439,5.6458,5.6515,5.6583,5.6627,5.6712,5.6733,5.6814,5.6819,5.6794,5.6798,5.6835,5.6831,5.6943,5.6961,5.688,5.6881,5.6882,0,5.5989,5.6037,5.6119,5.6158,5.6196,5.6257,5.63,5.6343,5.6387,5.6462,5.6499,5.6569,5.6628,5.6735,5.6784,5.6851,5.6859,5.6893,5.6869,5.686,5.6862,5.686,5.6866,5.6897,5.6898,5.6899,5.6899,0,5.6053,5.6075,5.6136,5.6206,5.6257,5.6314,5.6371,5.6401,5.6454,5.6502,5.6573,5.6619,5.6708,5.6778,5.685,5.6888,5.6903,5.6907,5.692,5.6912,5.6896,5.6908,5.6807,5.6904,5.6903,5.6903,5.6903,5.6903,5.6093,5.6138,5.6204,5.6272,5.632,5.6374,5.6422,5.6466,5.6527,5.6604,5.6626,5.6701,5.6764,5.6862,5.6901,5.6961,5.6956,5.6974,5.6979,5.6983,5.6985,5.6886,5.6974,5.6973,5.6973,5.6973,5.6973,0,5.6161,5.6205,5.6268,5.6348,5.6402,5.6414,5.6478,5.6523,5.6589,5.6647,5.6705,5.6788,5.6857,5.6913,5.6984,5.7021,5.703,5.7039,5.7037,5.7046,5.6984,5.6967,5.7031,5.703,5.703,5.703,5.703,5.703,5.6202,5.628,5.631,5.6413,5.6457,5.6532,5.6569,5.6619,5.6665,5.6758,5.6817,5.6853,5.6911,5.6987,5.7051,5.7066,5.7092,5.7099,5.7115,5.7056,5.705,5.7044,5.7028,5.7104,5.7104,5.7173,5.7174,5.7174]}]]